Weather in Kalinino

Russia / Oryol Oblast     52°22′58″N   37°55′13″E
temp.,
°C
wind,
m/s
gust,
m/s
humid.,
%
clouds,
%
prec.,
mm/h
press.,
hPa
HPBL,
m
25 june, sat
sat2500:00+15nne48835 0.0 1014137
03:00+14ne368938 0.0 101594
06:00+15ne37865 0.0 1016188
09:00+20ne57695 0.0 1016618
12:00+23ene575838 0.0 10171628
15:00+24ene575625 0.0 10171815
18:00+23ne57675 0.0 1017875
21:00+18nne47830 0.0 1018125
26 june, sun
sun2600:00+17ne348710 0.0 101959
03:00+16ne48870 0.0 1019138
06:00+17ne38860 0.0 1020187
09:00+23ene58655 0.0 1021485
12:00+26ne57560 0.0 10211581
15:00+26ne575427 0.0 10212290
18:00+24ne476948 0.0 1021330
21:00+20ne34820 0.1 102151
27 june, mon
mon2700:00+19nne22820 0.0 102212
03:00+18nne22860 0.0 102221
06:00+19n12853 0.0 102375
09:00+24nnw11683 0.0 1022433
12:00+27nnw23575 0.0 10221195
15:00+29n34558 0.0 10201828
18:00+28n35663 0.2 1019350
21:00+23nnw22810 0.6 101915
28 june, tue
tue2800:00+21nw35870 0.2 101965
03:00+21n368724 0.2 1018129
06:00+20nne48870 0.0 1019207
09:00+24ne57681 0.0 1019516
12:00+26ne66620 0.0 10191192
15:00+25ne776342 0.4 10201462
18:00+22ne67662 0.0 1020920
21:00+16ne36744 0.0 102298
29 june, wed
wed2900:00+14ne34764 0.0 102265
03:00+12ene33805 0.0 102344
06:00+13ne377995 0.0 1023190
09:00+17ene56651 0.0 1023781
12:00+20ene55501 0.0 10241702
15:00+20ne55470 0.0 10241919
18:00+19ne45570 0.0 10231655
21:00+14ne34730 0.0 102454